Weather History for KMGW - January, 1998

Change the Weather History Date:

Friday, January 2, 1998

  Actual Average Record
Temperature  
Mean Temperature 46 °F 32 °F  
Max Temperature 50 °F 39 °F 70 °F (2000)
Min Temperature 41 °F 24 °F -8 °F (1968)
Degree Days  
Heating Degree Days 20 33  
Month to date heating degree days 66  
Since 1 July heating degree days 2050  
Cooling Degree Days 0 0  
Month to date cooling degree days 0  
Year to date cooling degree days 0  
Moisture  
Dew Point 20 °F    
Average Humidity 37    
Maximum Humidity 43    
Minimum Humidity 30    
Precipitation  
Precipitation 0.00 in 0.09 in 1.06 in (1966)
Month to date precipitation 0.18  
Year to date precipitation 0.18  
Snow  
Snow 0.00 in - - ()
Snow Depth 1.00 in    
Sea Level Pressure  
Sea Level Pressure 30.33 in    
Wind  
Wind Speed 10 mph (SSW)    
Max Wind Speed 12 mph    
Max Gust Speed 17 mph    
Visibility 20 miles    
Events      
T = Trace of Precipitation, MM = Missing Value Source: NWS Daily Summary

Daily Weather History Graph

Daily Weather History Graph

Search for Another Location

Airport or City:

Trip Planner

Search our weather history database for the weather conditions in past years. The results will help you decide how hot, cold, wet, or windy it might be!

Date:

Astronomy

Jan. 02, 1998 Rise Set
Actual Time 7:40 AM EST 5:07 PM EST
Civil Twilight 7:10 AM EST 5:37 PM EST
Nautical Twilight 6:36 AM EST 6:10 PM EST
Astronomical Twilight 6:04 AM EST 6:43 PM EST
Moon 10:23 AM EST (1/2) 9:48 PM EST (1/2)
Length of Visible Light 10h 26m
Length of Day
9h 26m
Waxing Crescent, 19% of the Moon is Illuminated
Jan 2
Waxing Crescent
Jan 5
First Quarter
Jan 12
Full
Jan 20
Last Quarter
Jan 28
New

Hourly Weather History & Observations

Time (EST) Temp. Windchill Dew Point Humidity Pressure Visibility Wind Dir Wind Speed Gust Speed Precip Events Conditions
12:49 AM - - - N/A% 30.30 in 20.0 mi WSW 11.5 mph - N/A   Mostly Cloudy
1:47 AM 41.0 °F 34.7 °F 15.8 °F 36% 30.30 in 20.0 mi SW 10.4 mph - N/A   Overcast
2:49 AM 41.0 °F 35.8 °F 17.6 °F 39% 30.32 in 20.0 mi SSW 8.1 mph - N/A   Mostly Cloudy
3:49 AM 41.0 °F 36.4 °F 17.6 °F 39% 30.33 in 20.0 mi SSW 6.9 mph - N/A   Mostly Cloudy
4:49 AM 42.8 °F 38.0 °F 15.8 °F 34% 30.34 in 20.0 mi SSW 8.1 mph - N/A   Overcast
5:47 AM 42.8 °F 38.0 °F 17.6 °F 36% 30.37 in 20.0 mi SSW 8.1 mph - N/A   Overcast
6:47 AM 42.8 °F 37.5 °F 17.6 °F 36% 30.36 in 20.0 mi SSW 9.2 mph - N/A   Overcast
7:45 AM 42.8 °F 38.0 °F 17.6 °F 36% 30.34 in 25.0 mi SSW 8.1 mph - N/A   Overcast
8:45 AM 42.8 °F 36.6 °F 17.6 °F 36% 30.37 in 25.0 mi SSW 11.5 mph - N/A   Overcast
9:45 AM 42.8 °F 37.0 °F 19.4 °F 39% 30.39 in 25.0 mi SSW 10.4 mph - N/A   Overcast
10:45 AM 44.6 °F 38.8 °F 19.4 °F 37% 30.38 in 25.0 mi SSW 11.5 mph - N/A   Overcast
11:45 AM 44.6 °F 39.2 °F 19.4 °F 37% 30.36 in 25.0 mi SW 10.4 mph - N/A   Overcast
12:50 PM 46.4 °F 41.1 °F 19.4 °F 34% 30.34 in 25.0 mi SSW 11.5 mph - N/A   Mostly Cloudy
1:45 PM 48.2 °F - 21.2 °F 34% 30.32 in 25.0 mi SW 9.2 mph 17.3 mph N/A   Scattered Clouds
2:45 PM 50.0 °F - 23.0 °F 35% 30.30 in 25.0 mi SSW 11.5 mph - N/A   Scattered Clouds
4:45 PM 48.2 °F - 26.6 °F 43% 30.31 in 25.0 mi SSW 11.5 mph 17.3 mph N/A   Mostly Cloudy
5:45 PM 48.2 °F - 26.6 °F 43% 30.32 in 20.0 mi SSW 9.2 mph - N/A   Mostly Cloudy
6:45 PM 48.2 °F - 26.6 °F 43% 30.33 in 20.0 mi SSW 6.9 mph - N/A   Mostly Cloudy
7:45 PM 48.2 °F - 24.8 °F 40% 30.32 in 20.0 mi South 6.9 mph - N/A   Mostly Cloudy
9:45 PM 48.2 °F - 21.2 °F 34% 30.32 in 20.0 mi South 6.9 mph - N/A   Mostly Cloudy
10:45 PM 50.0 °F - 19.4 °F 30% 30.31 in 20.0 mi SSW 6.9 mph - N/A   Overcast
11:48 PM 50.0 °F - 19.4 °F 30% 30.32 in 20.0 mi SSW 9.2 mph - N/A   Overcast